Total_Precipitation_Accumulation
0.28 0.47 0.44 0.28 0.28 0.27 0.22 0.22 0.15 0.06 0.05 0.12 0.11 0.07 0.03 0.02 0.03 0.03 0.03 0.04 0.03 0.02 0.01 0.03 0.08 0.13 0.17 0.20 0.21 0.20 0.22 0.23 0.25 0.25 0.25 0.23 0.19 0.13 0.08 0.06 0.04 0.03 0.02 0.01
0.37 0.40 0.22 0.15 0.17 0.20 0.25 0.28 0.20 0.11 0.06 0.14 0.13 0.06 0.03 0.02 0.03 0.03 0.03 0.04 0.05 0.02 0.02 0.02 0.05 0.12 0.18 0.21 0.21 0.19 0.19 0.21 0.21 0.20 0.19 0.18 0.16 0.13 0.07 0.05 0.04 0.03 0.02 0.01
0.33 0.23 0.14 0.18 0.25 0.31 0.29 0.26 0.20 0.16 0.13 0.17 0.18 0.12 0.02 0.02 0.02 0.03 0.02 0.03 0.04 0.03 0.02 0.02 0.02 0.07 0.14 0.19 0.21 0.18 0.16 0.17 0.19 0.20 0.22 0.21 0.22 0.20 0.13 0.07 0.04 0.02 0.02 0.01
0.24 0.15 0.17 0.23 0.26 0.33 0.32 0.17 0.17 0.20 0.30 0.32 0.26 0.27 0.04 0.01 0.01 0.01 0.02 0.01 0.02 0.03 0.02 0.02 0.02 0.04 0.08 0.12 0.19 0.21 0.16 0.15 0.16 0.20 0.22 0.20 0.19 0.18 0.12 0.06 0.03 0.02 0.02 0.01
0.34 0.17 0.22 0.26 0.18 0.21 0.24 0.17 0.21 0.25 0.39 0.48 0.32 0.35 0.10 0.01 0.02 0.01 0.01 0.01 0.01 0.02 0.03 0.02 0.02 0.03 0.06 0.09 0.15 0.22 0.21 0.17 0.16 0.18 0.20 0.20 0.18 0.15 0.13 0.09 0.05 0.03 0.02 0.02
0.29 0.19 0.24 0.23 0.14 0.16 0.20 0.27 0.35 0.43 0.70 0.92 0.33 0.29 0.13 0.03 0.03 0.03 0.01 0.01 0.01 0.01 0.03 0.02 0.02 0.03 0.06 0.11 0.15 0.20 0.24 0.21 0.18 0.17 0.17 0.18 0.18 0.17 0.15 0.12 0.06 0.04 0.02 0.02
0.32 0.22 0.24 0.22 0.23 0.25 0.39 0.71 1.08 1.18 1.28 0.82 0.16 0.18 0.13 0.04 0.03 0.03 0.03 0.02 0.01 0.01 0.02 0.03 0.02 0.03 0.05 0.10 0.16 0.17 0.21 0.21 0.19 0.17 0.17 0.16 0.16 0.16 0.16 0.13 0.08 0.05 0.03 0.02
0.43 0.30 0.24 0.26 0.30 0.37 0.44 0.67 0.93 0.85 0.54 0.18 0.08 0.12 0.08 0.06 0.04 0.02 0.02 0.02 0.02 0.02 0.02 0.03 0.03 0.03 0.03 0.06 0.12 0.15 0.18 0.18 0.19 0.17 0.15 0.15 0.17 0.16 0.15 0.15 0.12 0.07 0.04 0.03
0.52 0.30 0.16 0.15 0.17 0.27 0.42 0.45 0.42 0.59 0.44 0.24 0.14 0.09 0.07 0.04 0.03 0.02 0.02 0.02 0.03 0.03 0.02 0.03 0.03 0.03 0.03 0.04 0.09 0.12 0.14 0.15 0.16 0.17 0.15 0.14 0.15 0.16 0.15 0.16 0.17 0.11 0.06 0.04
0.64 0.40 0.19 0.17 0.20 0.26 0.36 0.45 0.48 0.77 0.75 0.45 0.24 0.12 0.12 0.09 0.06 0.04 0.03 0.03 0.04 0.04 0.03 0.03 0.03 0.03 0.03 0.03 0.06 0.10 0.10 0.11 0.13 0.15 0.15 0.13 0.14 0.15 0.15 0.16 0.17 0.16 0.10 0.07
0.60 0.57 0.32 0.29 0.40 0.45 0.42 0.54 0.70 0.72 0.55 0.44 0.33 0.23 0.21 0.16 0.11 0.08 0.05 0.04 0.04 0.04 0.04 0.04 0.04 0.04 0.03 0.03 0.05 0.09 0.10 0.10 0.12 0.13 0.13 0.11 0.12 0.13 0.15 0.16 0.16 0.18 0.17 0.13
0.51 0.62 0.46 0.32 0.34 0.36 0.45 0.52 0.62 0.73 0.57 0.30 0.29 0.25 0.20 0.14 0.11 0.10 0.07 0.04 0.03 0.03 0.04 0.04 0.04 0.04 0.03 0.03 0.03 0.06 0.10 0.10 0.11 0.13 0.12 0.09 0.10 0.13 0.15 0.15 0.15 0.16 0.18 0.19
0.72 0.84 0.69 0.52 0.48 0.42 0.56 0.54 0.52 0.51 0.43 0.33 0.29 0.20 0.14 0.11 0.10 0.10 0.09 0.06 0.04 0.03 0.03 0.03 0.04 0.04 0.04 0.03 0.03 0.03 0.05 0.08 0.10 0.15 0.16 0.12 0.10 0.11 0.14 0.14 0.14 0.17 0.19 0.22
0.70 0.79 0.65 0.64 0.60 0.53 0.52 0.46 0.42 0.49 0.53 0.34 0.21 0.16 0.14 0.13 0.13 0.11 0.10 0.09 0.07 0.05 0.03 0.03 0.04 0.05 0.05 0.04 0.03 0.03 0.04 0.06 0.09 0.13 0.18 0.15 0.12 0.11 0.12 0.12 0.12 0.15 0.23 0.31
0.50 0.53 0.31 0.18 0.16 0.23 0.28 0.27 0.28 0.36 0.36 0.28 0.17 0.14 0.17 0.16 0.17 0.16 0.14 0.11 0.08 0.06 0.04 0.03 0.04 0.05 0.05 0.04 0.03 0.02 0.02 0.04 0.07 0.11 0.16 0.15 0.14 0.14 0.13 0.13 0.15 0.18 0.26 0.36
0.49 0.46 0.24 0.12 0.09 0.13 0.16 0.16 0.19 0.20 0.21 0.18 0.14 0.16 0.15 0.15 0.14 0.14 0.14 0.12 0.11 0.08 0.06 0.04 0.04 0.05 0.05 0.04 0.04 0.03 0.02 0.02 0.04 0.07 0.12 0.12 0.13 0.18 0.18 0.18 0.20 0.21 0.22 0.29
0.50 0.47 0.37 0.19 0.09 0.21 0.31 0.22 0.20 0.19 0.19 0.20 0.21 0.20 0.15 0.14 0.14 0.14 0.13 0.13 0.13 0.11 0.08 0.06 0.05 0.05 0.05 0.04 0.04 0.04 0.03 0.02 0.03 0.04 0.08 0.09 0.10 0.13 0.15 0.18 0.21 0.23 0.24 0.25
0.41 0.44 0.49 0.29 0.26 0.51 0.35 0.16 0.18 0.21 0.22 0.22 0.21 0.18 0.15 0.14 0.15 0.14 0.12 0.13 0.13 0.12 0.10 0.08 0.06 0.04 0.04 0.04 0.03 0.03 0.03 0.03 0.03 0.03 0.05 0.07 0.08 0.09 0.11 0.13 0.15 0.18 0.23 0.26
0.24 0.42 0.59 0.47 0.39 0.29 0.18 0.10 0.17 0.27 0.29 0.21 0.17 0.13 0.13 0.13 0.13 0.14 0.12 0.09 0.10 0.11 0.10 0.08 0.07 0.05 0.04 0.04 0.03 0.03 0.03 0.03 0.03 0.03 0.03 0.05 0.06 0.07 0.08 0.09 0.10 0.12 0.15 0.20
0.25 0.41 0.68 0.60 0.45 0.28 0.19 0.08 0.11 0.23 0.35 0.18 0.12 0.10 0.12 0.14 0.18 0.16 0.12 0.07 0.05 0.06 0.07 0.06 0.05 0.04 0.04 0.04 0.04 0.03 0.03 0.03 0.03 0.03 0.02 0.03 0.05 0.06 0.06 0.06 0.08 0.09 0.10 0.12
0.44 0.65 0.75 0.58 0.41 0.19 0.13 0.08 0.12 0.32 0.37 0.16 0.11 0.09 0.10 0.17 0.20 0.14 0.08 0.07 0.04 0.03 0.04 0.05 0.05 0.04 0.04 0.04 0.05 0.04 0.03 0.03 0.03 0.03 0.02 0.02 0.03 0.04 0.05 0.05 0.07 0.08 0.09 0.10
0.41 0.58 0.56 0.48 0.42 0.22 0.11 0.13 0.28 0.34 0.15 0.09 0.07 0.06 0.07 0.09 0.09 0.08 0.07 0.06 0.05 0.04 0.03 0.04 0.04 0.04 0.03 0.03 0.04 0.05 0.04 0.03 0.03 0.02 0.02 0.02 0.03 0.04 0.05 0.05 0.06 0.07 0.09 0.10
0.29 0.44 0.45 0.39 0.29 0.17 0.13 0.18 0.19 0.15 0.11 0.06 0.05 0.04 0.05 0.06 0.06 0.07 0.07 0.06 0.06 0.04 0.03 0.03 0.04 0.04 0.04 0.03 0.03 0.04 0.05 0.04 0.03 0.03 0.03 0.03 0.04 0.04 0.05 0.06 0.06 0.07 0.08 0.11
0.16 0.20 0.27 0.22 0.14 0.12 0.12 0.12 0.10 0.07 0.06 0.05 0.05 0.05 0.05 0.04 0.05 0.06 0.06 0.05 0.05 0.05 0.03 0.03 0.04 0.05 0.04 0.03 0.02 0.03 0.04 0.04 0.05 0.04 0.03 0.04 0.04 0.05 0.06 0.06 0.06 0.07 0.10 0.21
0.12 0.15 0.20 0.17 0.12 0.09 0.07 0.08 0.09 0.07 0.05 0.04 0.04 0.05 0.05 0.04 0.05 0.05 0.05 0.05 0.05 0.04 0.04 0.03 0.04 0.05 0.05 0.04 0.03 0.02 0.03 0.04 0.06 0.05 0.05 0.05 0.06 0.06 0.07 0.07 0.07 0.09 0.11 0.26
0.07 0.12 0.16 0.13 0.09 0.10 0.07 0.05 0.07 0.08 0.07 0.06 0.06 0.05 0.04 0.04 0.04 0.04 0.04 0.04 0.04 0.04 0.04 0.04 0.03 0.04 0.05 0.05 0.05 0.03 0.03 0.05 0.06 0.07 0.07 0.07 0.07 0.08 0.08 0.08 0.08 0.10 0.12 0.17